EW3221 Weather Reports


time (UTC)temp
F
wind
direction
speed
knots
gust
knots
rain 1hr
in
rain 24hr
in
rain mn
in
humidity
%
barometer
mb
20260504213042 75 169 1.7 8.7 0.00 0.00 0.00 39 1009.5
20260504211541 76 180 1.7 7.0 0.00 0.00 0.00 36 1009.7
20260504210054 77 252 2.6 7.8 0.00 0.00 0.00 37 1009.8
20260504204553 77 130 1.7 6.1 0.00 0.00 0.00 40 1009.9
20260504203041 77 232 2.6 13.0 0.00 0.00 0.00 36 1009.9
20260504201536 78 86 0.0 6.1 0.00 0.00 0.00 42 1010.1
20260504200033 78 111 0.9 6.1 0.00 0.00 0.00 36 1010.3
20260504194532 78 192 2.6 7.0 0.00 0.00 0.00 35 1010.4
20260504193029 78 108 4.3 10.4 0.00 0.00 0.00 36 1010.7
20260504191528 78 245 1.7 8.7 0.00 0.00 0.00 35 1011.0
20260504190025 78 144 0.9 7.8 0.00 0.00 0.00 39 1011.1
20260504184523 76 188 0.9 7.8 0.00 0.00 0.00 35 1011.4
20260504183020 77 248 0.0 10.4 0.00 0.00 0.00 37 1011.6
20260504181518 77 163 1.7 8.7 0.00 0.00 0.00 39 1011.8
20260504180016 75 199 0.9 7.0 0.00 0.00 0.00 41 1012.0
20260504174514 75 286 0.9 9.6 0.00 0.00 0.00 39 1012.0
20260504173010 76 169 2.6 8.7 0.00 0.00 0.00 41 1012.4
20260504171508 75 64 2.6 7.8 0.00 0.00 0.00 43 1012.6
20260504160103 73 243 1.7 7.8 0.00 0.00 0.00 36 1013.5
20260504081535 47 153 0.0 0.9 0.00 0.00 0.00 83 1015.6
20260504050009 41 264 0.0 0.0 0.00 0.00 0.00 85 1015.8
20260504044513 40 264 0.0 0.0 0.00 0.00 0.00 84 1015.7
20260504043011 40 264 0.0 0.0 0.00 0.00 0.00 83 1015.7
20260504041511 40 264 0.0 0.0 0.00 0.00 0.00 83 1015.9
20260504040100 40 264 0.0 0.0 0.00 0.00 0.00 81 1015.8
20260504034623 41 264 0.0 0.0 0.00 0.00 0.00 80 1015.7
20260504033059 41 264 0.0 0.0 0.00 0.00 0.00 80 1015.5
20260504031559 41 264 0.0 0.0 0.00 0.00 0.00 80 1015.4
20260504030058 41 264 0.0 0.0 0.00 0.00 0.00 80 1015.3
20260504024557 41 264 0.0 0.0 0.00 0.00 0.00 78 1015.3
20260504023056 42 264 0.0 0.0 0.00 0.00 0.00 76 1015.2
20260504021556 43 264 0.0 0.0 0.00 0.00 0.00 75 1015.2
20260504020119 43 264 0.0 0.0 0.00 0.00 0.00 74 1015.1
20260504014559 44 264 0.0 0.0 0.00 0.00 0.00 71 1015.0
20260504013113 45 264 0.0 0.0 0.00 0.00 0.00 69 1015.0
20260504011553 46 264 0.0 0.0 0.00 0.00 0.00 67 1014.8
20260504010055 47 264 0.0 0.0 0.00 0.00 0.00 65 1014.6
20260504004553 48 264 0.0 0.0 0.00 0.00 0.00 60 1014.7
20260504003053 50 264 0.0 0.0 0.00 0.00 0.00 57 1014.5
20260504001553 51 264 0.0 0.0 0.00 0.00 0.00 55 1014.4
20260504000052 52 254 0.0 0.0 0.00 0.00 0.00 51 1014.3
20260503234551 55 254 0.0 0.0 0.00 0.00 0.00 45 1014.1
20260503233051 56 254 0.0 0.9 0.00 0.00 0.00 42 1013.9
20260503231550 58 285 0.0 1.7 0.00 0.00 0.00 39 1013.9
20260503230049 59 5 0.9 7.8 0.00 0.00 0.00 36 1013.8
20260503224558 59 302 0.9 7.8 0.00 0.00 0.00 38 1013.9
20260503223049 60 262 0.0 5.2 0.00 0.00 0.00 36 1013.9
20260503221558 60 309 0.0 7.8 0.00 0.00 0.00 40 1013.9
20260503220048 61 223 0.0 4.3 0.00 0.00 0.00 36 1014.1
20260503214548 61 304 4.3 11.3 0.00 0.00 0.00 34 1014.0